"Pseudo-MPEC" for P20ORQV

Created 2019 Jun 15 19:09:43 UT using Find_Orb

Click here for an explanation of pseudo-MPECs

 
 Astrometry: 
     P20ORQV  C2019 04 27.45099 17 13 56.61 +22 30 41.9    ~6B97 21.9 GVNEOCPG96
     P20ORQV  C2019 04 27.45611 17 13 56.53 +22 30 46.1    ~6B97 21.8 GVNEOCPG96
     P20ORQV  C2019 04 27.46122 17 13 56.44 +22 30 49.6    ~6B97 21.8 GVNEOCPG96
     P20ORQV  C2019 04 27.46633 17 13 56.31 +22 30 52.1    ~6B97 21.5 GVNEOCPG96
     P20ORQV  C2019 05 10(joyZMu`]J^q`w*Ah[,UBE:#qhi-tKQj@QJnLd+Qky-2gaGNjMVmF51
     P20ORQV  C2019 05 10Ex6,Mb8=\CB*I`6clFy2*:Z2W$Astrometry_gq^@bEmJ]d`Z,k)F51
     P20ORQV  C2019 05 10m[^0M*L'pVAPhR.(t@:healKR\2wfYXJi`.;g$r./:;=v5w=O?\jF51
     P20ORQV  C2019 05 101_ou';;`N?)4ME!,qcoe$2b9dYB);f;T\3P=NkXVeaj8,Ex#cmCgF51
     P20ORQV  C2019 05 13.40358 17 04 41.10 +24 41 57.4    ~6B8M 21.6 GVNEOCPG96
     P20ORQV  C2019 05 13.40871 17 04 40.79 +24 41 59.2    ~6B8M 20.6 GVNEOCPG96
     P20ORQV  C2019 05 13.41385 17 04 40.52 +24 42 00.5    ~6B8M 21.4 GVNEOCPG96
     P20ORQV  C2019 05 22Z+[DW'3DvhZ/rw8=Un(q9uW^s5!AXi!=$y[[nY#692.kJLs.q2)OF52
     P20ORQV  C2019 05 22J#dLDB;y_sxtT$Bh[Y'nArrGskVD#_sN7:Yo9rhkFvJid+lyCLkkF52
     P20ORQV  C2019 05 22=G6A`/I#!I=4r1a:V-6PU2R!eP?7u1/BGP\0y_eWNBahxn$%yYk+F52
     P20ORQV  C2019 05 30.35590 16 45 39.05 +24 33 35.5    ~6B8M 21.0 GVNEOCPG96
     P20ORQV  C2019 05 30.36106 16 45 38.67 +24 33 33.3    ~6B8M 21.2 GVNEOCPG96
     P20ORQV  C2019 05 30.36623 16 45 38.23 +24 33 31.1    ~6B8M 21.2 GVNEOCPG96
     P20ORQV  C2019 06 05Z0[TV?1Rf;5PnNJ_px'Wf%D_$$*d8nEFpVe[b+vQ\jZR:?H8GYX'F51
     P20ORQV  C2019 06 05^#@=[J's@i6+JS7G*Mkredacted;Y,^[x_:WfRZ,I;VPhN1b=GnhF51
     P20ORQV  C2019 06 08_i_fZWE@;Z?NPf0LP%\Zm1kV(m$JG=9`)t(:Yb346cTpM'FRc[NLF52
     P20ORQV  C2019 06 0801?h[g+uMhIEpclick=%XQ9HnGBN?hereNl(t8+FZAg?pn-?:#6sF52
     P20ORQV  C2019 06 085Af763V2O:.)C\/5B/JcviYEwR9Th2D0R[ekf'tZi##L3mnB=Ws`F52
     P20ORQV  C2019 06 09.17705 16 33 02.45 +22 59 00.4    ~694q       VNEOCPI52
     P20ORQV  C2019 06 09.17988 16 33 02.27 +22 58 57.8    ~694q       VNEOCPI52
     P20ORQV  C2019 06 09.18307 16 33 02.01 +22 58 55.4    ~694q       VNEOCPI52
     P20ORQV  C2019 06 09.18626 16 33 01.77 +22 58 53.9    ~694q 20.5 GVNEOCPI52
     P20ORQV KC2019 06 11jr]B1ldwjNOKNnqnvEO?I,k6S92forpJ_W:Wn\B`!?*OHVX='LmUH21
     P20ORQV KC2019 06 112)bX?oqRfBkw6IEMk`Nej#3[explanationP[bCb=0kYh1O9=o5.H21
     P20ORQV  C2019 06 13.33171 16 27 56.49 +21 58 49.3    ~6D8b       VNEOCPI52
     P20ORQV  C2019 06 13.33629 16 27 56.12 +21 58 45.3    ~6D8b 21.0 GVNEOCPI52
     P20ORQV  C2019 06 13.34420 16 27 55.52 +21 58 37.1    ~6D8b       VNEOCPI52

Station data:
(F51) Pan-STARRS 1, Haleakala  (N20.707235 W156.255910)  US/Hawaii.
   Observers N. Primak, A. Schultz, S. Watters, J. Thiel, T. Goggia. Measurer
   PS1 Science Consortium. 1.8-m Ritchey-Chrétien + CCD.
(F52) Pan-STARRS 2, Haleakala  (N20.707384 W156.255910)  US/Hawaii. 1.8-m
   Ritchey-Chrétien + CCD.
(G96) Mt. Lemmon Survey  (N32.442754 W110.788720)  US/Arizona.  Observers T.
   A. Pruyne, B. M. Africano, E. J. Christensen, G. A. Farneth, D. C. Fuls,
   A. R. Gibbs, A. D. Grauer, H. Groeller, J. A. Johnson, R. A. Kowalski, S.
   M. Larson, G. J. Leonard, R. L. Seaman, F. C. Shelly. 1.5-m reflector +
   10K CCD.
(H21) Astronomical Research Observatory, Westfield  (N39.483057 W87.968270)
   US/Illinois. 0.76-m f/3.0 astrograph + CCD.
(I52) Steward Observatory, Mt. Lemmon Station  (N32.442547 W110.788920)
   US/Arizona.  Observers T. A. Pruyne, B. M. Africano, E. J. Christensen, G.
   A. Farneth, D. C. Fuls, A. R. Gibbs, A. D. Grauer, H. Groeller, J. A.
   Johnson, R. A. Kowalski, S. M. Larson, G. J. Leonard, R. L. Seaman, F. C.
   Shelly. 1.0-m reflector + CCD.

Orbital elements:  P20ORQV
   Perihelion 2019 Nov 17.975228 +/- 0.0123 TT = 23:24:19 (JD 2458805.475228)
Epoch 2019 Jun 13.0 TT = JDT 2458647.5   Earth MOID: 0.6554   AutoNEOCP
M 294.82630265 +/- 0.0043           (J2000 ecliptic)
n   0.41255643 +/- 1.39e-5          Peri.  196.24704 +/- 0.007
a   1.78709292 +/- 4.01e-5          Node   126.84372 +/- 0.0023
e   0.0672569 +/- 4.33e-5           Incl.   24.74644 +/- 0.0008
P   2.39/872.59d           H 19.1   G  0.15   U  5.2  
q 1.66689857 +/- 5.54e-5    Q 1.90728728 +/- 0.000113
From 31 observations 2019 Apr. 27-June 13; mean residual 0".34
Residuals in arcseconds: 
190427 G96  .08-  .39-    190522 F52  .10+  .10+    190609 I52  .29+  .21-    
190427 G96  .10+  .41+    190522 F52  .00   .02-    190609 I52  .87+  .62-    
190427 G96  .13+  .52+    190522 F52  .32-  .25-    190609 I52  .74+  .56-    
190427 G96  .40-  .36-    190530 G96  .24-  .33+    190609 I52  .88+  .41+    
190510 F51  .07-  .12-    190530 G96  .24+  .06+    190611 H21  .55-  .67+    
190510 F51  .13+  .02-    190530 G96  .09-  .21-    190611 H21  .38-  .34+    
190510 F51  .06-  .17-    190605 F51  .33-  .08+    190613 I52  .47+  .26-    
190510 F51  .10-  .08+    190605 F51  .23-  .03-    190613 I52  .09+  .14+    
190513 G96  .29+  .23-    190608 F52  .28-  .14+    190613 I52  .04-  .47-    
190513 G96  .06+  .17+    190608 F52  .43-  .12+    
190513 G96  .38+  .06+    190608 F52  .61-  .03-    

Ephemerides (geocentric):
Date (UTC) HH   RA              Dec         delta   r     elong  mag " sig PA
---- -- -- --  -------------   -----------  ------ ------ -----  --- ---- ---
2019 06 15 19  16 25 05.111   +21 17 56.77  .88720 1.7413 132.3 21.2 .153   7
2019 06 15 20  16 25 02.275   +21 17 13.25  .88722 1.7412 132.3 21.2 .154   7
2019 06 15 21  16 24 59.442   +21 16 29.67  .88725 1.7412 132.3 21.2 .155   7
2019 06 15 22  16 24 56.611   +21 15 46.02  .88728 1.7412 132.3 21.2 .156   7
2019 06 15 23  16 24 53.782   +21 15 02.31  .88731 1.7411 132.3 21.2 .157   7
2019 06 16 00  16 24 50.956   +21 14 18.53  .88734 1.7411 132.3 21.2 .158   7
2019 06 16 01  16 24 48.132   +21 13 34.69  .88737 1.7411 132.2 21.2 .159   7
2019 06 16 02  16 24 45.311   +21 12 50.79  .88740 1.7410 132.2 21.2 .160   7
2019 06 16 03  16 24 42.493   +21 12 06.83  .88743 1.7410 132.2 21.2 .161   7
2019 06 16 04  16 24 39.677   +21 11 22.80  .88746 1.7410 132.2 21.2 .162   7
2019 06 16 05  16 24 36.863   +21 10 38.71  .88749 1.7409 132.2 21.2 .163   7
2019 06 16 06  16 24 34.052   +21 09 54.55  .88752 1.7409 132.2 21.2 .164   7
2019 06 16 07  16 24 31.244   +21 09 10.34  .88755 1.7409 132.2 21.2 .165   7
2019 06 16 08  16 24 28.438   +21 08 26.06  .88758 1.7408 132.2 21.2 .166   7
2019 06 16 09  16 24 25.634   +21 07 41.72  .88761 1.7408 132.2 21.2 .167   7
2019 06 16 10  16 24 22.833   +21 06 57.31  .88764 1.7408 132.2 21.2 .168   7
2019 06 16 11  16 24 20.035   +21 06 12.84  .88767 1.7407 132.1 21.2 .169   7
2019 06 16 12  16 24 17.239   +21 05 28.31  .88771 1.7407 132.1 21.2 .170   7
2019 06 16 13  16 24 14.446   +21 04 43.72  .88774 1.7406 132.1 21.2 .171   7
2019 06 16 14  16 24 11.656   +21 03 59.06  .88777 1.7406 132.1 21.2 .172   7
2019 06 16 15  16 24 08.868   +21 03 14.35  .88780 1.7406 132.1 21.2 .173   7
2019 06 16 16  16 24 06.082   +21 02 29.57  .88784 1.7405 132.1 21.2 .174   7
2019 06 16 17  16 24 03.299   +21 01 44.72  .88787 1.7405 132.1 21.2 .175   7
2019 06 16 18  16 24 00.519   +21 00 59.82  .88790 1.7405 132.1 21.2 .176   7
2019 06 16 19  16 23 57.741   +21 00 14.85  .88794 1.7404 132.1 21.2 .177   7
2019 06 16 20  16 23 54.966   +20 59 29.82  .88797 1.7404 132.1 21.2 .178   7
2019 06 16 21  16 23 52.194   +20 58 44.73  .88801 1.7404 132.0 21.2 .179   7
2019 06 16 22  16 23 49.424   +20 57 59.58  .88804 1.7403 132.0 21.2 .180   7
2019 06 16 23  16 23 46.657   +20 57 14.37  .88807 1.7403 132.0 21.2 .181   7
2019 06 17 00  16 23 43.893   +20 56 29.09  .88811 1.7403 132.0 21.2 .182   7
2019 06 17 01  16 23 41.131   +20 55 43.75  .88815 1.7402 132.0 21.2 .183   7
2019 06 17 02  16 23 38.372   +20 54 58.35  .88818 1.7402 132.0 21.2 .184   7
2019 06 17 03  16 23 35.615   +20 54 12.89  .88822 1.7402 132.0 21.2 .185   7
2019 06 17 04  16 23 32.861   +20 53 27.37  .88825 1.7401 132.0 21.2 .186   7
2019 06 17 05  16 23 30.110   +20 52 41.78  .88829 1.7401 132.0 21.2 .187   7
2019 06 17 06  16 23 27.361   +20 51 56.13  .88833 1.7401 132.0 21.2 .188   7
2019 06 17 07  16 23 24.615   +20 51 10.43  .88836 1.7400 131.9 21.2 .189   7
2019 06 17 08  16 23 21.872   +20 50 24.66  .88840 1.7400 131.9 21.2 .190   7
2019 06 17 09  16 23 19.132   +20 49 38.83  .88844 1.7400 131.9 21.2 .191   7
2019 06 17 10  16 23 16.394   +20 48 52.94  .88847 1.7399 131.9 21.2 .192   7
2019 06 17 11  16 23 13.659   +20 48 06.98  .88851 1.7399 131.9 21.2 .193   7
2019 06 17 12  16 23 10.926   +20 47 20.97  .88855 1.7399 131.9 21.2 .194   7
2019 06 17 13  16 23 08.197   +20 46 34.89  .88859 1.7398 131.9 21.2 .195   7
2019 06 17 14  16 23 05.470   +20 45 48.76  .88863 1.7398 131.9 21.2 .196   7
2019 06 17 15  16 23 02.745   +20 45 02.56  .88867 1.7398 131.9 21.2 .197   7
2019 06 17 16  16 23 00.024   +20 44 16.30  .88870 1.7397 131.8 21.2 .198   7
2019 06 17 17  16 22 57.305   +20 43 29.98  .88874 1.7397 131.8 21.2 .199   7
2019 06 17 18  16 22 54.589   +20 42 43.60  .88878 1.7397 131.8 21.2 .200   7